Powrót do katalogu

INTELSAT 33E DEB

AktywnyGEO
NORAD 61998·DEBRIS· XX

Wystrzelony Aug 24, 2016 z Guiana Space Centre

Loading…

TLE

ŚwieżeSource: Space-Track

Epoka: Sep 14, 2026, 02:33 UTC

1 61998U 16053Q   26257.10661897  .00000076  00000-0  00000-0 0  9991
2 61998   1.7812  81.9027 0015995  25.8423 335.0176  1.00436400  6991

Śledź INTELSAT 33E DEB w czasie rzeczywistym z AllMySat

Download on the App Store